TAIP48 YSTW-YBOK

Flight info

Callsign TAIP48
Flight time 1h 40m
Altitude 9000
Route AM129/N0111F060
Aircraft EC35/L-SFG/C

Departure

Time 2026-04-25 11:43
Airport Tamworth Airport (YSTW)

Arrival

Time 2026-04-25 13:23
Airport Oakey Army Aviation Centre (YBOK)
Time Latitude Longitude Altitude Speed Heading
2026-04-25 11:38 -31.08315 150.84645 1330 ft 0 kts 122°
2026-04-25 11:42 -31.08315 150.84634 1369 ft 4 kts 127°
2026-04-25 11:42 -31.08356 150.84772 1548 ft 43 kts 108°
2026-04-25 11:43 -31.08393 150.85172 1874 ft 63 kts 80°
2026-04-25 11:43 -31.07910 150.85399 2262 ft 78 kts 14°
2026-04-25 11:43 -31.07412 150.85445 2623 ft 64 kts 16°
2026-04-25 11:43 -31.07065 150.85390 2992 ft 52 kts 19°
2026-04-25 11:44 -31.06591 150.85431 3256 ft 89 kts 25°
2026-04-25 11:44 -31.05953 150.85654 3532 ft 99 kts 21°
2026-04-25 11:44 -31.05393 150.85751 4019 ft 69 kts 20°
2026-04-25 11:44 -31.05000 150.85768 4364 ft 45 kts 21°
2026-04-25 11:45 -31.04696 150.85840 4543 ft 61 kts
2026-04-25 11:45 -31.04184 150.85863 4745 ft 79 kts 10°
2026-04-25 11:45 -31.03659 150.85971 4951 ft 74 kts 12°
2026-04-25 11:45 -31.03151 150.86087 5125 ft 78 kts 24°
2026-04-25 11:46 -31.02580 150.86243 5321 ft 92 kts 21°
2026-04-25 11:46 -31.01935 150.86433 5530 ft 96 kts 20°
2026-04-25 11:46 -31.01285 150.86623 5731 ft 96 kts 20°
2026-04-25 11:46 -31.00631 150.86812 5928 ft 97 kts 19°
2026-04-25 11:47 -30.99973 150.87001 6125 ft 98 kts 19°
2026-04-25 11:47 -30.99302 150.87195 6329 ft 99 kts 19°
2026-04-25 11:47 -30.98628 150.87392 6543 ft 97 kts 18°
2026-04-25 11:47 -30.98005 150.87561 6744 ft 88 kts 20°
2026-04-25 11:48 -30.97422 150.87712 6954 ft 81 kts 16°
2026-04-25 11:48 -30.96922 150.87843 7037 ft 66 kts 21°
2026-04-25 11:48 -30.96442 150.87990 7020 ft 81 kts 21°
2026-04-25 11:48 -30.95801 150.88185 7011 ft 109 kts 19°
2026-04-25 11:49 -30.94976 150.88435 6998 ft 136 kts 19°
2026-04-25 11:49 -30.93984 150.88705 7009 ft 152 kts 17°
2026-04-25 11:49 -30.92932 150.89006 7019 ft 156 kts 17°
2026-04-25 11:49 -30.91876 150.89310 7022 ft 155 kts 17°
2026-04-25 11:50 -30.90851 150.89597 7024 ft 148 kts 17°
2026-04-25 11:50 -30.89857 150.89883 7009 ft 146 kts 18°
2026-04-25 11:50 -30.88854 150.90158 7012 ft 146 kts 17°
2026-04-25 11:50 -30.87852 150.90443 7009 ft 145 kts 18°
2026-04-25 11:51 -30.86867 150.90720 7008 ft 146 kts 17°
2026-04-25 11:51 -30.85869 150.91002 7014 ft 146 kts 18°
2026-04-25 11:51 -30.84967 150.91254 7034 ft 140 kts 17°
2026-04-25 11:51 -30.84028 150.91518 7026 ft 136 kts 18°
2026-04-25 11:52 -30.83100 150.91780 7025 ft 137 kts 18°
2026-04-25 11:52 -30.82160 150.92041 7027 ft 138 kts 18°
2026-04-25 11:52 -30.81224 150.92308 7029 ft 138 kts 18°
2026-04-25 11:52 -30.80291 150.92567 7030 ft 138 kts 18°
2026-04-25 11:53 -30.79349 150.92833 7028 ft 139 kts 18°
2026-04-25 11:53 -30.78403 150.93105 7027 ft 140 kts 18°
2026-04-25 11:53 -30.77456 150.93372 7026 ft 140 kts 17°
2026-04-25 11:53 -30.76495 150.93640 7027 ft 139 kts 18°
2026-04-25 11:54 -30.75549 150.93912 7029 ft 139 kts 18°
2026-04-25 11:54 -30.74605 150.94177 7031 ft 139 kts 18°
2026-04-25 11:54 -30.72715 150.94711 7034 ft 139 kts 18°
2026-04-25 11:55 -30.71776 150.94972 7031 ft 139 kts 17°
2026-04-25 11:55 -30.70822 150.95244 7030 ft 139 kts 18°
2026-04-25 11:55 -30.69881 150.95506 7032 ft 139 kts 17°
2026-04-25 11:55 -30.69003 150.95752 7034 ft 138 kts 18°
2026-04-25 11:56 -30.68059 150.96017 7032 ft 138 kts 17°
2026-04-25 11:56 -30.67124 150.96278 7029 ft 139 kts 18°
2026-04-25 11:56 -30.66173 150.96544 6991 ft 140 kts 17°
2026-04-25 11:56 -30.65213 150.96815 6930 ft 140 kts 18°
2026-04-25 11:57 -30.64259 150.97080 6846 ft 140 kts 18°
2026-04-25 11:57 -30.63311 150.97345 6759 ft 140 kts 18°
2026-04-25 11:57 -30.62364 150.97610 6729 ft 139 kts 19°
2026-04-25 11:57 -30.61419 150.97876 6770 ft 139 kts 19°
2026-04-25 11:58 -30.60464 150.98145 6857 ft 139 kts 19°
2026-04-25 11:58 -30.59518 150.98410 6955 ft 139 kts 19°
2026-04-25 11:58 -30.58580 150.98674 7023 ft 139 kts 18°
2026-04-25 11:58 -30.57627 150.98943 7058 ft 139 kts 18°
2026-04-25 11:59 -30.56687 150.99205 7073 ft 139 kts 18°
2026-04-25 11:59 -30.55723 150.99475 7079 ft 139 kts 18°
2026-04-25 11:59 -30.54787 150.99738 7082 ft 139 kts 18°
2026-04-25 12:00 -30.52879 151.00272 7085 ft 139 kts 18°
2026-04-25 12:00 -30.51926 151.00540 7085 ft 139 kts 18°
2026-04-25 12:00 -30.50035 151.01070 7085 ft 139 kts 18°
2026-04-25 12:01 -30.49081 151.01337 7084 ft 139 kts 18°
2026-04-25 12:01 -30.48133 151.01602 7084 ft 139 kts 18°
2026-04-25 12:01 -30.47189 151.01868 7082 ft 139 kts 18°
2026-04-25 12:01 -30.46235 151.02135 7082 ft 140 kts 18°
2026-04-25 12:02 -30.44336 151.02664 7079 ft 140 kts 18°
2026-04-25 12:02 -30.43380 151.02933 7078 ft 140 kts 18°
2026-04-25 12:02 -30.42425 151.03200 7076 ft 140 kts 19°
2026-04-25 12:03 -30.41474 151.03462 7076 ft 140 kts 19°
2026-04-25 12:03 -30.40519 151.03729 7075 ft 140 kts 19°
2026-04-25 12:03 -30.39568 151.03996 7073 ft 140 kts 19°
2026-04-25 12:03 -30.38605 151.04263 7072 ft 140 kts 19°
2026-04-25 12:04 -30.37651 151.04532 7071 ft 140 kts 19°
2026-04-25 12:04 -30.36698 151.04797 7070 ft 140 kts 19°
2026-04-25 12:04 -30.35740 151.05066 7069 ft 140 kts 19°
2026-04-25 12:04 -30.34790 151.05330 7069 ft 140 kts 18°
2026-04-25 12:05 -30.33831 151.05598 7067 ft 140 kts 19°
2026-04-25 12:05 -30.32878 151.05864 7066 ft 140 kts 19°
2026-04-25 12:05 -30.31918 151.06133 7065 ft 140 kts 19°
2026-04-25 12:05 -30.30972 151.06398 7064 ft 140 kts 19°
2026-04-25 12:06 -30.30006 151.06667 7063 ft 140 kts 19°
2026-04-25 12:06 -30.29052 151.06932 7063 ft 140 kts 19°
2026-04-25 12:06 -30.28091 151.07201 7062 ft 140 kts 19°
2026-04-25 12:06 -30.27139 151.07465 7061 ft 140 kts 19°
2026-04-25 12:07 -30.26184 151.07732 7060 ft 140 kts 19°
2026-04-25 12:07 -30.25230 151.07999 7065 ft 140 kts 19°
2026-04-25 12:07 -30.24272 151.08266 7071 ft 140 kts 18°
2026-04-25 12:07 -30.23315 151.08539 7070 ft 141 kts 18°
2026-04-25 12:08 -30.22346 151.08812 7068 ft 142 kts 18°
2026-04-25 12:08 -30.21389 151.09080 7057 ft 142 kts 18°
2026-04-25 12:08 -30.20408 151.09354 7046 ft 142 kts 17°
2026-04-25 12:08 -30.19453 151.09619 7041 ft 142 kts 17°
2026-04-25 12:09 -30.18484 151.09889 7038 ft 142 kts 17°
2026-04-25 12:09 -30.17517 151.10158 7037 ft 142 kts 17°
2026-04-25 12:09 -30.16552 151.10426 7037 ft 142 kts 17°
2026-04-25 12:09 -30.15573 151.10700 7037 ft 142 kts 18°
2026-04-25 12:10 -30.14616 151.10965 7037 ft 142 kts 17°
2026-04-25 12:10 -30.13644 151.11235 7037 ft 142 kts 18°
2026-04-25 12:10 -30.12671 151.11505 7038 ft 142 kts 17°
2026-04-25 12:10 -30.11704 151.11775 7038 ft 142 kts 18°
2026-04-25 12:11 -30.10743 151.12042 7038 ft 142 kts 18°
2026-04-25 12:11 -30.09777 151.12309 7039 ft 142 kts 17°
2026-04-25 12:11 -30.08798 151.12582 7039 ft 142 kts 18°
2026-04-25 12:11 -30.07834 151.12851 7039 ft 142 kts 17°
2026-04-25 12:12 -30.06858 151.13119 7039 ft 142 kts 17°
2026-04-25 12:12 -30.06224 151.13298 7039 ft 142 kts 18°
2026-04-25 12:12 -30.04926 151.13657 7040 ft 142 kts 17°
2026-04-25 12:12 -30.03973 151.13921 7040 ft 142 kts 17°
2026-04-25 12:13 -30.02991 151.14195 7041 ft 142 kts 17°
2026-04-25 12:13 -30.02033 151.14459 7056 ft 142 kts 17°
2026-04-25 12:13 -30.01057 151.14731 7063 ft 142 kts 18°
2026-04-25 12:13 -30.00094 151.14996 7067 ft 142 kts 18°
2026-04-25 12:14 -29.99123 151.15266 7069 ft 142 kts 17°
2026-04-25 12:14 -29.98162 151.15533 7067 ft 142 kts 18°
2026-04-25 12:14 -29.97193 151.15801 7064 ft 142 kts 18°
2026-04-25 12:14 -29.96216 151.16069 7064 ft 142 kts 18°
2026-04-25 12:15 -29.95973 151.16135 7064 ft 142 kts 17°
2026-04-25 12:15 -29.95025 151.16403 7047 ft 137 kts 18°
2026-04-25 12:15 -29.94099 151.16663 7027 ft 134 kts 17°
2026-04-25 12:15 -29.93183 151.16914 7022 ft 134 kts 18°
2026-04-25 12:16 -29.92264 151.17168 7022 ft 135 kts 17°
2026-04-25 12:16 -29.91330 151.17425 7033 ft 136 kts 17°
2026-04-25 12:16 -29.90402 151.17685 7039 ft 138 kts 18°
2026-04-25 12:16 -29.89486 151.17940 7040 ft 142 kts 17°
2026-04-25 12:17 -29.88554 151.18198 7046 ft 144 kts 17°
2026-04-25 12:17 -29.87581 151.18469 7024 ft 145 kts 17°
2026-04-25 12:17 -29.86586 151.18738 7017 ft 145 kts 18°
2026-04-25 12:17 -29.85595 151.19009 7017 ft 144 kts 18°
2026-04-25 12:18 -29.84631 151.19273 7020 ft 142 kts 18°
2026-04-25 12:18 -29.83657 151.19542 7036 ft 142 kts 18°
2026-04-25 12:18 -29.82686 151.19810 7042 ft 142 kts 18°
2026-04-25 12:18 -29.81715 151.20079 7046 ft 143 kts 18°
2026-04-25 12:19 -29.80099 151.20526 7047 ft 143 kts 18°
2026-04-25 12:19 -29.78800 151.20883 7047 ft 143 kts 18°
2026-04-25 12:19 -29.77831 151.21152 7046 ft 143 kts 18°
2026-04-25 12:20 -29.76857 151.21422 7045 ft 143 kts 18°
2026-04-25 12:20 -29.75885 151.21689 7045 ft 143 kts 18°
2026-04-25 12:20 -29.74905 151.21959 7044 ft 143 kts 18°
2026-04-25 12:20 -29.73934 151.22227 7044 ft 143 kts 18°
2026-04-25 12:21 -29.72964 151.22494 7043 ft 143 kts 18°
2026-04-25 12:21 -29.71989 151.22763 7043 ft 143 kts 18°
2026-04-25 12:21 -29.71022 151.23030 7042 ft 142 kts 18°
2026-04-25 12:21 -29.70059 151.23296 7042 ft 142 kts 18°
2026-04-25 12:22 -29.69079 151.23567 7041 ft 142 kts 18°
2026-04-25 12:22 -29.68118 151.23831 7042 ft 142 kts 18°
2026-04-25 12:22 -29.67142 151.24100 7056 ft 142 kts 18°
2026-04-25 12:22 -29.66181 151.24364 7062 ft 142 kts 18°
2026-04-25 12:23 -29.65209 151.24632 7065 ft 142 kts 18°
2026-04-25 12:23 -29.64238 151.24899 7065 ft 142 kts 18°
2026-04-25 12:23 -29.63267 151.25165 7065 ft 143 kts 18°
2026-04-25 12:23 -29.62287 151.25435 7065 ft 143 kts 18°
2026-04-25 12:24 -29.61319 151.25699 7065 ft 143 kts 19°
2026-04-25 12:24 -29.60351 151.25966 7065 ft 143 kts 19°
2026-04-25 12:24 -29.59371 151.26234 7065 ft 143 kts 19°
2026-04-25 12:24 -29.58398 151.26503 7064 ft 143 kts 19°
2026-04-25 12:25 -29.57425 151.26770 7064 ft 143 kts 19°
2026-04-25 12:25 -29.56452 151.27037 7063 ft 143 kts 19°
2026-04-25 12:25 -29.55487 151.27303 7063 ft 143 kts 19°
2026-04-25 12:25 -29.54509 151.27571 7063 ft 143 kts 19°
2026-04-25 12:26 -29.53548 151.27837 7062 ft 143 kts 19°
2026-04-25 12:26 -29.52567 151.28105 7062 ft 143 kts 19°
2026-04-25 12:26 -29.51600 151.28371 7062 ft 143 kts 19°
2026-04-25 12:26 -29.50636 151.28635 7061 ft 143 kts 19°
2026-04-25 12:27 -29.49657 151.28903 7060 ft 143 kts 19°
2026-04-25 12:27 -29.48692 151.29169 7060 ft 143 kts 19°
2026-04-25 12:27 -29.47721 151.29437 7060 ft 142 kts 19°
2026-04-25 12:27 -29.46748 151.29703 7060 ft 142 kts 19°
2026-04-25 12:28 -29.45777 151.29968 7059 ft 142 kts 19°
2026-04-25 12:28 -29.44812 151.30234 7059 ft 142 kts 19°
2026-04-25 12:28 -29.43842 151.30499 7058 ft 142 kts 19°
2026-04-25 12:28 -29.42878 151.30765 7058 ft 142 kts 19°
2026-04-25 12:29 -29.41897 151.31032 7058 ft 142 kts 19°
2026-04-25 12:29 -29.40924 151.31299 7058 ft 142 kts 19°
2026-04-25 12:29 -29.39961 151.31561 7057 ft 142 kts 19°
2026-04-25 12:29 -29.38994 151.31828 7057 ft 142 kts 19°
2026-04-25 12:30 -29.38018 151.32095 7057 ft 142 kts 19°
2026-04-25 12:30 -29.37052 151.32359 7057 ft 142 kts 19°
2026-04-25 12:30 -29.36506 151.32509 7103 ft 142 kts 18°
2026-04-25 12:30 -29.35532 151.32781 7059 ft 144 kts 18°
2026-04-25 12:31 -29.34547 151.33049 7038 ft 145 kts 18°
2026-04-25 12:31 -29.33602 151.33304 7030 ft 145 kts 19°
2026-04-25 12:31 -29.32610 151.33578 7023 ft 145 kts 20°
2026-04-25 12:31 -29.31613 151.33843 7017 ft 145 kts 18°
2026-04-25 12:32 -29.30638 151.34117 7018 ft 143 kts 19°
2026-04-25 12:32 -29.29668 151.34375 7023 ft 142 kts 19°
2026-04-25 12:32 -29.28698 151.34645 7033 ft 141 kts 19°
2026-04-25 12:32 -29.27727 151.34907 7044 ft 142 kts 19°
2026-04-25 12:33 -29.26767 151.35169 7049 ft 142 kts 19°
2026-04-25 12:33 -29.25800 151.35432 7052 ft 142 kts 20°
2026-04-25 12:33 -29.24823 151.35704 7052 ft 142 kts 19°
2026-04-25 12:33 -29.23854 151.35963 7052 ft 142 kts 19°
2026-04-25 12:34 -29.22883 151.36230 7050 ft 142 kts 19°
2026-04-25 12:34 -29.21921 151.36491 7050 ft 142 kts 20°
2026-04-25 12:34 -29.20950 151.36755 7049 ft 142 kts 19°
2026-04-25 12:34 -29.20307 151.36932 7049 ft 142 kts 19°
2026-04-25 12:35 -29.19016 151.37288 7047 ft 142 kts 19°
2026-04-25 12:35 -29.18042 151.37549 7047 ft 142 kts 19°
2026-04-25 12:35 -29.17068 151.37819 7046 ft 142 kts 19°
2026-04-25 12:35 -29.16098 151.38080 7044 ft 142 kts 19°
2026-04-25 12:36 -29.15130 151.38344 7044 ft 142 kts 20°
2026-04-25 12:36 -29.14167 151.38608 7043 ft 142 kts 19°
2026-04-25 12:36 -29.13196 151.38872 7042 ft 142 kts 19°
2026-04-25 12:36 -29.12235 151.39136 7041 ft 142 kts 19°
2026-04-25 12:37 -29.11269 151.39397 7040 ft 142 kts 19°
2026-04-25 12:37 -29.10292 151.39662 7040 ft 142 kts 19°
2026-04-25 12:37 -29.09336 151.39925 7039 ft 142 kts 19°
2026-04-25 12:37 -29.08360 151.40189 7038 ft 142 kts 19°
2026-04-25 12:38 -29.07392 151.40451 7036 ft 142 kts 19°
2026-04-25 12:38 -29.06422 151.40714 7036 ft 142 kts 20°
2026-04-25 12:38 -29.05453 151.40976 7035 ft 142 kts 20°
2026-04-25 12:38 -29.04480 151.41242 7034 ft 142 kts 20°
2026-04-25 12:39 -29.03523 151.41501 7034 ft 142 kts 19°
2026-04-25 12:39 -29.02545 151.41766 7032 ft 142 kts 20°
2026-04-25 12:39 -29.01582 151.42029 7036 ft 141 kts 20°
2026-04-25 12:39 -29.00617 151.42291 7041 ft 142 kts 20°
2026-04-25 12:40 -28.99652 151.42554 7039 ft 142 kts 20°
2026-04-25 12:40 -28.98684 151.42818 7034 ft 142 kts 20°
2026-04-25 12:40 -28.97721 151.43079 7024 ft 142 kts 20°
2026-04-25 12:40 -28.96750 151.43343 7013 ft 142 kts 20°
2026-04-25 12:41 -28.95784 151.43605 7009 ft 141 kts 20°
2026-04-25 12:41 -28.94820 151.43866 7007 ft 141 kts 20°
2026-04-25 12:41 -28.93858 151.44128 7006 ft 141 kts 20°
2026-04-25 12:41 -28.92889 151.44391 7006 ft 141 kts 20°
2026-04-25 12:42 -28.91924 151.44652 7006 ft 141 kts 20°
2026-04-25 12:42 -28.91601 151.44740 7006 ft 141 kts 20°
2026-04-25 12:42 -28.89995 151.45175 7006 ft 141 kts 20°
2026-04-25 12:42 -28.89019 151.45456 7008 ft 142 kts 21°
2026-04-25 12:43 -28.88050 151.45717 7007 ft 141 kts 19°
2026-04-25 12:43 -28.87090 151.45979 7006 ft 141 kts 20°
2026-04-25 12:43 -28.85150 151.46504 7008 ft 142 kts 20°
2026-04-25 12:44 -28.84191 151.46765 7008 ft 142 kts 20°
2026-04-25 12:44 -28.83213 151.47032 7008 ft 141 kts 21°
2026-04-25 12:44 -28.81288 151.47551 7008 ft 141 kts 20°
2026-04-25 12:45 -28.80330 151.47815 7008 ft 141 kts 21°
2026-04-25 12:45 -28.79354 151.48074 7010 ft 141 kts 19°
2026-04-25 12:45 -28.77438 151.48595 7016 ft 145 kts 23°
2026-04-25 12:46 -28.76397 151.48880 7026 ft 157 kts 18°
2026-04-25 12:46 -28.75296 151.49178 7032 ft 162 kts 19°
2026-04-25 12:46 -28.74194 151.49464 7039 ft 164 kts 18°
2026-04-25 12:46 -28.73045 151.49695 7039 ft 165 kts 14°
2026-04-25 12:47 -28.71907 151.49895 7040 ft 165 kts 15°
2026-04-25 12:47 -28.70755 151.50107 7038 ft 165 kts 15°
2026-04-25 12:47 -28.69610 151.50313 7038 ft 164 kts 15°
2026-04-25 12:47 -28.68465 151.50528 7039 ft 164 kts 15°
2026-04-25 12:48 -28.67321 151.50734 7039 ft 165 kts 14°
2026-04-25 12:48 -28.66176 151.50943 7038 ft 165 kts 15°
2026-04-25 12:48 -28.65031 151.51150 7037 ft 165 kts 15°
2026-04-25 12:48 -28.63901 151.51364 7036 ft 165 kts 17°
2026-04-25 12:49 -28.62748 151.51564 7038 ft 165 kts 15°
2026-04-25 12:49 -28.61620 151.51769 7038 ft 164 kts 17°
2026-04-25 12:49 -28.60474 151.51982 7038 ft 165 kts 15°
2026-04-25 12:49 -28.59331 151.52187 7038 ft 165 kts 16°
2026-04-25 12:50 -28.58184 151.52391 7049 ft 163 kts 15°
2026-04-25 12:50 -28.57124 151.52579 7063 ft 142 kts 15°
2026-04-25 12:50 -28.56188 151.52745 7027 ft 135 kts 20°
2026-04-25 12:50 -28.55201 151.52927 7027 ft 146 kts 18°
2026-04-25 12:51 -28.54177 151.53116 7041 ft 149 kts 16°
2026-04-25 12:51 -28.53142 151.53305 7040 ft 148 kts 16°
2026-04-25 12:51 -28.52112 151.53494 7051 ft 146 kts 16°
2026-04-25 12:51 -28.51550 151.53598 7054 ft 139 kts 16°
2026-04-25 12:52 -28.50607 151.53757 7024 ft 136 kts 18°
2026-04-25 12:52 -28.49645 151.53938 7031 ft 141 kts 18°
2026-04-25 12:52 -28.48668 151.54115 7038 ft 142 kts 17°
2026-04-25 12:52 -28.47673 151.54294 7038 ft 142 kts 17°
2026-04-25 12:53 -28.46685 151.54475 7038 ft 142 kts 17°
2026-04-25 12:53 -28.45696 151.54654 7038 ft 142 kts 17°
2026-04-25 12:53 -28.44714 151.54833 7038 ft 142 kts 17°
2026-04-25 12:53 -28.43735 151.55011 7038 ft 142 kts 17°
2026-04-25 12:54 -28.42737 151.55191 7038 ft 142 kts 17°
2026-04-25 12:54 -28.41765 151.55366 7038 ft 142 kts 17°
2026-04-25 12:54 -28.40780 151.55547 7038 ft 142 kts 17°
2026-04-25 12:54 -28.39793 151.55727 7038 ft 142 kts 17°
2026-04-25 12:55 -28.38809 151.55905 7038 ft 142 kts 17°
2026-04-25 12:55 -28.38161 151.56023 7039 ft 142 kts 17°
2026-04-25 12:55 -28.36853 151.56261 7038 ft 142 kts 17°
2026-04-25 12:55 -28.35868 151.56438 7038 ft 142 kts 17°
2026-04-25 12:56 -28.34889 151.56613 7038 ft 142 kts 18°
2026-04-25 12:56 -28.33902 151.56792 7038 ft 142 kts 18°
2026-04-25 12:56 -28.32910 151.56970 7038 ft 142 kts 18°
2026-04-25 12:56 -28.31927 151.57149 7038 ft 142 kts 18°
2026-04-25 12:57 -28.30943 151.57326 7038 ft 142 kts 18°
2026-04-25 12:57 -28.29967 151.57504 7038 ft 142 kts 18°
2026-04-25 12:57 -28.28983 151.57681 7038 ft 141 kts 18°
2026-04-25 12:57 -28.27997 151.57860 7038 ft 141 kts 18°
2026-04-25 12:58 -28.27014 151.58038 7038 ft 141 kts 18°
2026-04-25 12:58 -28.26030 151.58217 7038 ft 142 kts 18°
2026-04-25 12:58 -28.25063 151.58392 7038 ft 142 kts 18°
2026-04-25 12:58 -28.24069 151.58571 7038 ft 141 kts 18°
2026-04-25 12:59 -28.23096 151.58745 7037 ft 142 kts 18°
2026-04-25 12:59 -28.22112 151.58922 7037 ft 142 kts 18°
2026-04-25 12:59 -28.21122 151.59102 7037 ft 142 kts 18°
2026-04-25 12:59 -28.20138 151.59279 7038 ft 142 kts 18°
2026-04-25 13:00 -28.19164 151.59456 7037 ft 142 kts 18°
2026-04-25 13:00 -28.18832 151.59515 7037 ft 142 kts 18°
2026-04-25 13:00 -28.17203 151.59810 7037 ft 142 kts 18°
2026-04-25 13:00 -28.16212 151.59988 7037 ft 142 kts 18°
2026-04-25 13:01 -28.15235 151.60164 7037 ft 142 kts 18°
2026-04-25 13:01 -28.14250 151.60342 7037 ft 142 kts 18°
2026-04-25 13:01 -28.13319 151.60512 7057 ft 120 kts 27°
2026-04-25 13:01 -28.12746 151.60934 7041 ft 86 kts 53°
2026-04-25 13:02 -28.12289 151.61345 7025 ft 85 kts 54°
2026-04-25 13:02 -28.11754 151.61766 7022 ft 106 kts 35°
2026-04-25 13:02 -28.10991 151.61987 7019 ft 121 kts 24°
2026-04-25 13:02 -28.10082 151.62154 7027 ft 141 kts 17°
2026-04-25 13:03 -28.09068 151.62300 7041 ft 145 kts 15°
2026-04-25 13:03 -28.08060 151.62453 7041 ft 144 kts 16°
2026-04-25 13:03 -28.07060 151.62601 7037 ft 144 kts 16°
2026-04-25 13:03 -28.06063 151.62749 7036 ft 144 kts 17°
2026-04-25 13:04 -28.05079 151.62941 7030 ft 139 kts 32°
2026-04-25 13:04 -28.04153 151.63284 7034 ft 148 kts
2026-04-25 13:04 -28.03125 151.63271 7038 ft 144 kts 14°
2026-04-25 13:04 -28.02138 151.63440 7035 ft 143 kts 18°
2026-04-25 13:05 -28.01133 151.63592 7035 ft 145 kts 16°
2026-04-25 13:05 -28.00117 151.63739 7036 ft 145 kts 17°
2026-04-25 13:05 -27.99118 151.63887 7035 ft 144 kts 17°
2026-04-25 13:05 -27.98110 151.64033 7035 ft 144 kts 17°
2026-04-25 13:06 -27.97103 151.64180 7035 ft 144 kts 17°
2026-04-25 13:06 -27.96096 151.64327 7035 ft 145 kts 17°
2026-04-25 13:06 -27.95095 151.64473 7035 ft 145 kts 17°
2026-04-25 13:06 -27.94085 151.64621 7035 ft 145 kts 17°
2026-04-25 13:07 -27.93080 151.64767 7035 ft 145 kts 17°
2026-04-25 13:07 -27.92061 151.64918 7035 ft 144 kts 17°
2026-04-25 13:07 -27.91059 151.65071 7034 ft 144 kts 19°
2026-04-25 13:07 -27.90056 151.65247 7052 ft 142 kts 15°
2026-04-25 13:08 -27.89082 151.65373 7039 ft 138 kts 16°
2026-04-25 13:08 -27.88115 151.65512 7035 ft 137 kts 17°
2026-04-25 13:08 -27.87167 151.65651 7034 ft 137 kts 17°
2026-04-25 13:08 -27.86219 151.65790 7035 ft 137 kts 17°
2026-04-25 13:09 -27.85274 151.65927 7035 ft 137 kts 17°
2026-04-25 13:09 -27.84317 151.66066 7035 ft 137 kts 17°
2026-04-25 13:09 -27.83366 151.66206 7035 ft 137 kts 17°
2026-04-25 13:09 -27.82408 151.66345 7035 ft 137 kts 17°
2026-04-25 13:10 -27.81456 151.66484 7034 ft 137 kts 17°
2026-04-25 13:10 -27.80496 151.66625 7034 ft 137 kts 17°
2026-04-25 13:10 -27.79549 151.66763 7035 ft 137 kts 17°
2026-04-25 13:10 -27.78599 151.66902 7035 ft 137 kts 17°
2026-04-25 13:11 -27.77644 151.67041 7034 ft 137 kts 17°
2026-04-25 13:11 -27.76684 151.67180 7035 ft 137 kts 17°
2026-04-25 13:11 -27.75728 151.67320 7035 ft 137 kts 17°
2026-04-25 13:11 -27.74780 151.67458 7034 ft 137 kts 17°
2026-04-25 13:12 -27.73826 151.67598 7034 ft 137 kts 17°
2026-04-25 13:12 -27.73401 151.67660 7025 ft 137 kts 13°
2026-04-25 13:12 -27.72454 151.67824 7050 ft 137 kts 15°
2026-04-25 13:12 -27.71815 151.67920 7058 ft 138 kts 14°
2026-04-25 13:13 -27.70532 151.68102 7067 ft 137 kts 14°
2026-04-25 13:13 -27.69580 151.68242 7068 ft 137 kts 14°
2026-04-25 13:13 -27.68618 151.68381 6976 ft 138 kts 14°
2026-04-25 13:13 -27.67657 151.68510 6778 ft 137 kts 14°
2026-04-25 13:14 -27.66722 151.68639 6578 ft 135 kts 16°
2026-04-25 13:14 -27.65785 151.68773 6375 ft 133 kts 16°
2026-04-25 13:14 -27.64864 151.68900 6177 ft 131 kts 17°
2026-04-25 13:14 -27.63967 151.69028 5980 ft 131 kts 17°
2026-04-25 13:15 -27.63053 151.69156 5782 ft 131 kts 18°
2026-04-25 13:15 -27.62149 151.69282 5585 ft 131 kts 18°
2026-04-25 13:15 -27.61243 151.69414 5384 ft 130 kts 18°
2026-04-25 13:15 -27.60333 151.69542 5181 ft 130 kts 18°
2026-04-25 13:16 -27.59442 151.69675 4981 ft 129 kts 19°
2026-04-25 13:16 -27.58581 151.69794 4791 ft 130 kts 19°
2026-04-25 13:16 -27.57692 151.69925 4594 ft 129 kts 19°
2026-04-25 13:16 -27.56802 151.70047 4397 ft 129 kts 19°
2026-04-25 13:17 -27.55912 151.70174 4200 ft 128 kts 20°
2026-04-25 13:17 -27.55020 151.70303 3999 ft 128 kts 21°
2026-04-25 13:17 -27.54139 151.70428 3805 ft 128 kts 20°
2026-04-25 13:17 -27.53244 151.70561 3601 ft 128 kts 19°
2026-04-25 13:18 -27.52354 151.70691 3403 ft 128 kts 20°
2026-04-25 13:18 -27.51494 151.70859 3219 ft 130 kts 12°
2026-04-25 13:18 -27.50566 151.70670 2888 ft 147 kts 346°
2026-04-25 13:18 -27.49646 151.70207 2689 ft 140 kts 337°
2026-04-25 13:19 -27.48815 151.69705 2611 ft 132 kts 341°
2026-04-25 13:19 -27.47996 151.69209 2641 ft 136 kts 335°
2026-04-25 13:19 -27.47175 151.68633 2591 ft 138 kts 332°
2026-04-25 13:19 -27.46897 151.68431 2599 ft 138 kts 332°
2026-04-25 13:20 -27.45448 151.67650 2282 ft 140 kts 347°
2026-04-25 13:20 -27.44551 151.67488 2163 ft 123 kts
2026-04-25 13:20 -27.43764 151.67490 2098 ft 104 kts 11°
2026-04-25 13:20 -27.43015 151.67572 2053 ft 112 kts 12°
2026-04-25 13:21 -27.42254 151.67671 2074 ft 109 kts 17°
2026-04-25 13:21 -27.41531 151.67859 2111 ft 104 kts 31°
2026-04-25 13:21 -27.41015 151.68379 2112 ft 97 kts 61°
2026-04-25 13:21 -27.40731 151.69075 1910 ft 101 kts 86°
2026-04-25 13:22 -27.40700 151.69820 1840 ft 92 kts 93°
2026-04-25 13:22 -27.40772 151.70508 1755 ft 87 kts 105°
2026-04-25 13:22 -27.40891 151.71126 1703 ft 63 kts 103°
2026-04-25 13:23 -27.40999 151.72066 1563 ft 57 kts 100°
2026-04-25 13:23 -27.41023 151.72316 1498 ft 18 kts 105°
2026-04-25 13:23 -27.41060 151.72456 1440 ft 19 kts 104°
2026-04-25 13:23 -27.41098 151.72635 1410 ft 25 kts 104°
2026-04-25 13:24 -27.41134 151.72836 1400 ft 28 kts 104°
2026-04-25 13:24 -27.41170 151.73065 1369 ft 26 kts 104°
2026-04-25 13:24 -27.41180 151.73152 1341 ft 7 kts 104°
2026-04-25 13:24 -27.41191 151.73222 1348 ft 4 kts 104°
2026-04-25 13:25 -27.41202 151.73244 1355 ft 6 kts 104°
2026-04-25 13:25 -27.41249 151.73286 1351 ft 3 kts 152°
2026-04-25 13:25 -27.41267 151.73303 1340 ft 7 kts 152°
2026-04-25 13:25 -27.41277 151.73347 1346 ft 3 kts 176°
2026-04-25 13:26 -27.41289 151.73354 1334 ft 0 kts 199°
2026-04-25 13:26 -27.41290 151.73354 1330 ft 0 kts 194°